Torna al catalogo

ATLAS CENTAUR R/B

AttivoGTO
NORAD 6797·ROCKET BODY·🇺🇸 United States

Lanciato Aug 23, 1973 da Cape Canaveral Space Force Station

Loading…

TLE

In scadenzaSource: Space-Track

Epoca: Sep 14, 2026, 03:54 UTC

1 06797U 73058B   26257.16262462 -.00000086  00000-0  36695-3 0  9990
2 06797  27.2591 154.5676 7195670 343.6165   2.0251  2.21957213429304

Traccia ATLAS CENTAUR R/B in tempo reale con AllMySat

Download on the App Store